QPF
0.00 0.00 0.00 0.00 0.00 0.00 0.00 0.00 0.00 0.00 0.00 0.00 0.00 0.00 0.00 0.00 0.00 0.00 0.00 0.00 0.00 0.00 0.00 0.00 0.00 0.00 0.00 0.00 0.00 0.00 0.00 0.00 0.00 0.00 0.00 0.00 0.00 0.00 0.00 0.00 0.00 0.00 0.00 0.00 0.00
0.00 0.00 0.00 0.00 0.00 0.00 0.00 0.00 0.00 0.00 0.00 0.00 0.00 0.00 0.00 0.00 0.00 0.00 0.00 0.00 0.00 0.00 0.00 0.00 0.00 0.00 0.00 0.00 0.00 0.00 0.00 0.00 0.00 0.00 0.00 0.00 0.00 0.00 0.00 0.00 0.00 0.00 0.00 0.00 0.00
0.00 0.00 0.00 0.00 0.00 0.00 0.00 0.00 0.00 0.00 0.00 0.00 0.00 0.00 0.00 0.00 0.00 0.00 0.00 0.00 0.00 0.00 0.00 0.00 0.00 0.00 0.00 0.00 0.00 0.00 0.00 0.00 0.00 0.00 0.00 0.00 0.00 0.00 0.00 0.00 0.00 0.00 0.00 0.00 0.00
0.00 0.00 0.00 0.00 0.00 0.00 0.00 0.00 0.00 0.00 0.00 0.00 0.00 0.00 0.00 0.00 0.00 0.00 0.00 0.00 0.00 0.00 0.00 0.00 0.00 0.00 0.00 0.00 0.00 0.00 0.00 0.00 0.00 0.00 0.00 0.00 0.00 0.00 0.00 0.00 0.00 0.00 0.00 0.00 0.00
0.00 0.00 0.00 0.00 0.00 0.00 0.00 0.00 0.00 0.00 0.00 0.00 0.00 0.00 0.00 0.00 0.00 0.00 0.00 0.00 0.00 0.00 0.00 0.00 0.00 0.00 0.00 0.00 0.00 0.00 0.00 0.00 0.00 0.00 0.00 0.00 0.00 0.00 0.00 0.00 0.00 0.00 0.00 0.00 0.00
0.00 0.00 0.00 0.00 0.00 0.00 0.00 0.00 0.00 0.00 0.00 0.00 0.00 0.00 0.00 0.00 0.00 0.00 0.00 0.00 0.00 0.00 0.00 0.00 0.00 0.00 0.00 0.00 0.00 0.00 0.00 0.00 0.00 0.00 0.00 0.00 0.00 0.00 0.00 0.00 0.00 0.00 0.00 0.00 0.00
0.00 0.00 0.00 0.00 0.00 0.00 0.00 0.00 0.00 0.00 0.00 0.00 0.00 0.00 0.00 0.00 0.00 0.00 0.00 0.00 0.00 0.00 0.00 0.00 0.00 0.00 0.00 0.00 0.00 0.00 0.00 0.00 0.00 0.00 0.00 0.00 0.00 0.00 0.00 0.00 0.00 0.00 0.00 0.00 0.00
0.00 0.00 0.00 0.00 0.00 0.00 0.00 0.00 0.00 0.00 0.00 0.00 0.00 0.00 0.00 0.00 0.00 0.00 0.00 0.00 0.00 0.00 0.00 0.00 0.00 0.00 0.00 0.00 0.00 0.00 0.00 0.00 0.00 0.00 0.00 0.00 0.00 0.00 0.00 0.00 0.00 0.00 0.00 0.00 0.00
0.00 0.00 0.00 0.00 0.00 0.00 0.00 0.00 0.00 0.00 0.00 0.00 0.00 0.00 0.00 0.00 0.00 0.00 0.00 0.00 0.00 0.00 0.00 0.00 0.00 0.00 0.00 0.00 0.00 0.00 0.00 0.00 0.00 0.00 0.00 0.00 0.00 0.00 0.00 0.00 0.00 0.00 0.00 0.00 0.00
0.00 0.00 0.00 0.00 0.00 0.00 0.00 0.00 0.00 0.00 0.00 0.00 0.00 0.00 0.00 0.00 0.00 0.00 0.00 0.00 0.00 0.00 0.00 0.00 0.00 0.00 0.00 0.00 0.00 0.00 0.00 0.00 0.00 0.00 0.00 0.00 0.00 0.00 0.00 0.00 0.00 0.00 0.00 0.00 0.00
0.01 0.00 0.00 0.00 0.00 0.00 0.00 0.00 0.00 0.00 0.00 0.00 0.00 0.00 0.00 0.00 0.00 0.00 0.00 0.00 0.00 0.00 0.00 0.00 0.00 0.00 0.00 0.00 0.00 0.00 0.00 0.00 0.00 0.00 0.00 0.00 0.00 0.00 0.00 0.00 0.00 0.00 0.00 0.00 0.00
0.02 0.01 0.00 0.00 0.00 0.00 0.00 0.00 0.00 0.00 0.00 0.00 0.00 0.00 0.00 0.00 0.00 0.00 0.00 0.00 0.00 0.00 0.00 0.00 0.00 0.00 0.00 0.00 0.00 0.00 0.00 0.00 0.00 0.00 0.00 0.00 0.00 0.00 0.00 0.00 0.00 0.00 0.00 0.00 0.00
0.00 0.00 0.00 0.00 0.00 0.00 0.00 0.00 0.00 0.00 0.00 0.00 0.00 0.00 0.00 0.00 0.00 0.00 0.00 0.00 0.00 0.00 0.00 0.00 0.00 0.00 0.00 0.00 0.00 0.00 0.00 0.00 0.00 0.00 0.00 0.00 0.00 0.00 0.00 0.00 0.00 0.00 0.00 0.00 0.00
0.00 0.00 0.00 0.00 0.00 0.00 0.00 0.01 0.00 0.00 0.00 0.00 0.00 0.00 0.00 0.00 0.00 0.00 0.00 0.00 0.00 0.00 0.00 0.00 0.00 0.00 0.00 0.00 0.00 0.00 0.00 0.00 0.00 0.00 0.00 0.00 0.00 0.00 0.00 0.00 0.00 0.00 0.00 0.00 0.00
0.00 0.00 0.00 0.00 0.00 0.00 0.01 0.02 0.01 0.00 0.00 0.00 0.00 0.00 0.00 0.00 0.00 0.00 0.00 0.00 0.00 0.00 0.00 0.00 0.00 0.00 0.00 0.00 0.00 0.00 0.00 0.00 0.00 0.00 0.00 0.00 0.00 0.00 0.00 0.00 0.00 0.00 0.00 0.00 0.00
0.00 0.00 0.00 0.00 0.00 0.00 0.00 0.03 0.04 0.03 0.00 0.00 0.00 0.00 0.00 0.00 0.00 0.00 0.00 0.00 0.00 0.00 0.00 0.00 0.00 0.00 0.00 0.00 0.00 0.00 0.00 0.00 0.00 0.00 0.00 0.00 0.00 0.00 0.00 0.00 0.00 0.00 0.00 0.00 0.00
0.00 0.00 0.00 0.00 0.00 0.00 0.02 0.05 0.05 0.01 0.00 0.00 0.00 0.00 0.00 0.00 0.00 0.00 0.00 0.00 0.00 0.00 0.00 0.00 0.00 0.00 0.00 0.00 0.00 0.00 0.00 0.00 0.00 0.00 0.00 0.00 0.00 0.00 0.00 0.00 0.00 0.00 0.00 0.00 0.00
0.00 0.00 0.00 0.00 0.00 0.01 0.02 0.05 0.03 0.00 0.00 0.00 0.00 0.00 0.00 0.00 0.00 0.00 0.00 0.00 0.00 0.00 0.00 0.00 0.00 0.00 0.00 0.00 0.00 0.00 0.00 0.00 0.00 0.00 0.00 0.00 0.00 0.00 0.00 0.00 0.00 0.00 0.00 0.00 0.00
0.00 0.00 0.00 0.00 0.00 0.06 0.08 0.04 0.00 0.00 0.00 0.00 0.00 0.00 0.00 0.00 0.00 0.00 0.00 0.00 0.00 0.00 0.00 0.00 0.00 0.00 0.00 0.00 0.00 0.00 0.00 0.00 0.00 0.00 0.00 0.00 0.00 0.00 0.00 0.00 0.00 0.00 0.00 0.00 0.00
0.00 0.00 0.00 0.00 0.00 0.05 0.10 0.03 0.00 0.00 0.00 0.00 0.00 0.00 0.00 0.00 0.00 0.00 0.00 0.00 0.00 0.00 0.00 0.00 0.00 0.00 0.00 0.00 0.00 0.00 0.00 0.00 0.00 0.00 0.00 0.00 0.00 0.00 0.00 0.00 0.00 0.00 0.00 0.00 0.00
0.00 0.00 0.00 0.00 0.01 0.01 0.04 0.01 0.00 0.00 0.00 0.01 0.00 0.00 0.00 0.00 0.00 0.00 0.00 0.00 0.00 0.00 0.00 0.00 0.00 0.00 0.00 0.00 0.00 0.00 0.00 0.00 0.00 0.00 0.00 0.00 0.00 0.00 0.00 0.00 0.00 0.00 0.00 0.00 0.00
0.00 0.00 0.00 0.01 0.00 0.00 0.00 0.00 0.00 0.00 0.00 0.00 0.00 0.00 0.00 0.00 0.00 0.00 0.00 0.00 0.00 0.00 0.00 0.00 0.00 0.00 0.00 0.00 0.00 0.00 0.00 0.00 0.00 0.00 0.00 0.00 0.00 0.00 0.00 0.00 0.00 0.00 0.00 0.00 0.00
0.00 0.00 0.00 0.04 0.01 0.00 0.00 0.00 0.00 0.00 0.01 0.01 0.00 0.00 0.00 0.00 0.01 0.00 0.00 0.00 0.00 0.00 0.00 0.00 0.00 0.00 0.00 0.00 0.00 0.00 0.00 0.00 0.00 0.00 0.00 0.00 0.00 0.00 0.00 0.00 0.00 0.00 0.00 0.00 0.00
0.00 0.00 0.00 0.00 0.00 0.00 0.00 0.00 0.00 0.00 0.00 0.01 0.02 0.02 0.01 0.01 0.01 0.01 0.00 0.00 0.00 0.00 0.00 0.00 0.00 0.00 0.00 0.00 0.00 0.00 0.00 0.00 0.00 0.00 0.00 0.00 0.00 0.00 0.00 0.00 0.00 0.00 0.00 0.00 0.00
0.00 0.00 0.00 0.00 0.00 0.00 0.00 0.00 0.00 0.00 0.00 0.00 0.00 0.00 0.01 0.01 0.01 0.01 0.00 0.00 0.00 0.00 0.01 0.01 0.00 0.00 0.00 0.00 0.00 0.00 0.00 0.00 0.00 0.00 0.00 0.00 0.00 0.00 0.00 0.00 0.00 0.00 0.00 0.00 0.00
0.01 0.00 0.00 0.00 0.00 0.00 0.00 0.00 0.00 0.00 0.00 0.00 0.00 0.00 0.00 0.01 0.00 0.00 0.00 0.01 0.01 0.00 0.00 0.00 0.00 0.00 0.00 0.00 0.00 0.00 0.00 0.00 0.00 0.00 0.00 0.00 0.00 0.00 0.00 0.00 0.00 0.00 0.00 0.00 0.00
0.00 0.00 0.00 0.00 0.00 0.00 0.00 0.00 0.00 0.00 0.00 0.00 0.00 0.00 0.00 0.00 0.01 0.02 0.02 0.01 0.01 0.00 0.00 0.00 0.00 0.00 0.00 0.00 0.00 0.00 0.00 0.00 0.00 0.00 0.00 0.00 0.00 0.00 0.00 0.00 0.00 0.00 0.00 0.00 0.00
MSLP
1018.00 1017.99 1017.97 1017.89 1017.83 1017.95 1017.96 1017.88 1017.94 1017.79 1017.63 1017.13 1016.89 1016.60 1016.23 1016.29 1015.76 1015.71 1015.90 1016.05 1015.82 1015.68 1015.48 1015.36 1015.65 1015.81 1016.24 1017.23 1017.87 1018.21 1019.39 1020.04 1019.75 1019.82 1018.99 1019.17 1019.42 1019.59 1019.75 1020.10 1020.47 1020.57 1020.77 1020.94 1021.24
1018.08 1018.08 1018.07 1018.16 1018.20 1018.13 1018.00 1018.08 1017.80 1017.69 1017.46 1017.03 1016.80 1016.22 1016.15 1015.83 1015.49 1015.62 1015.75 1015.74 1015.50 1015.60 1015.42 1015.57 1015.78 1016.26 1017.00 1017.54 1018.04 1018.47 1019.37 1019.17 1018.85 1018.84 1018.70 1018.88 1019.11 1019.43 1019.89 1020.13 1020.39 1020.53 1020.84 1021.24 1021.55
1018.33 1018.20 1018.26 1018.27 1018.30 1018.10 1018.02 1017.92 1017.81 1017.71 1017.34 1017.04 1016.48 1015.98 1015.82 1015.50 1015.75 1015.83 1015.73 1015.64 1015.51 1015.50 1015.62 1015.55 1015.83 1016.43 1017.39 1017.58 1018.12 1018.55 1018.71 1018.56 1018.41 1018.49 1018.48 1018.71 1019.04 1019.21 1019.52 1020.01 1019.52 1019.82 1020.35 1021.19 1021.58
1018.43 1018.51 1018.35 1018.30 1018.31 1018.32 1018.20 1018.01 1017.76 1017.48 1017.25 1016.63 1016.13 1015.78 1015.66 1015.22 1016.18 1015.76 1015.67 1015.76 1015.39 1015.46 1015.57 1015.91 1016.04 1017.02 1017.56 1017.90 1018.02 1018.36 1018.36 1018.23 1018.18 1018.28 1018.52 1018.66 1018.88 1019.16 1019.41 1018.72 1018.91 1019.23 1019.77 1020.81 1021.31
1018.30 1018.38 1018.36 1018.30 1018.22 1018.11 1018.06 1017.84 1017.63 1017.38 1016.98 1016.56 1016.08 1015.72 1015.35 1015.61 1016.08 1015.80 1015.39 1015.62 1015.33 1015.44 1015.78 1016.08 1016.52 1017.08 1017.69 1017.97 1018.17 1018.32 1018.34 1018.17 1018.11 1018.22 1018.34 1018.49 1018.71 1018.93 1018.93 1018.64 1019.01 1019.36 1019.91 1020.26 1020.75
1018.18 1018.16 1018.17 1018.12 1018.06 1017.88 1017.87 1017.82 1017.59 1017.31 1016.95 1016.69 1016.27 1015.78 1015.67 1016.04 1015.88 1015.85 1015.66 1015.33 1015.58 1015.68 1016.03 1016.32 1016.70 1016.95 1017.79 1018.15 1018.38 1018.55 1018.51 1018.42 1018.27 1018.26 1018.39 1018.56 1018.75 1018.89 1018.32 1018.58 1019.10 1019.56 1019.80 1020.15 1020.45
1018.10 1018.07 1018.09 1018.09 1018.10 1018.07 1017.91 1017.77 1017.60 1017.44 1017.15 1016.80 1016.46 1016.13 1016.06 1016.07 1015.90 1015.88 1015.42 1015.67 1015.86 1015.91 1016.39 1016.70 1016.70 1017.10 1017.79 1018.48 1018.75 1018.92 1019.09 1018.71 1018.46 1018.39 1018.46 1018.56 1018.88 1018.35 1018.32 1018.71 1019.13 1019.50 1019.79 1020.10 1020.16
1017.95 1018.03 1017.90 1017.80 1017.81 1017.79 1017.73 1017.56 1017.44 1017.24 1017.04 1016.84 1016.57 1016.31 1015.98 1015.83 1015.79 1015.74 1015.67 1015.90 1016.07 1016.18 1016.43 1016.86 1016.73 1017.49 1018.26 1018.98 1019.37 1019.67 1019.78 1019.63 1018.88 1018.82 1018.82 1019.01 1018.69 1017.95 1018.28 1018.81 1018.97 1019.21 1019.54 1019.76 1019.66
1017.83 1017.76 1017.83 1017.67 1017.60 1017.58 1017.50 1017.37 1017.23 1017.09 1016.92 1016.66 1016.62 1016.33 1016.13 1015.83 1016.02 1016.07 1015.98 1016.23 1016.38 1016.53 1016.98 1016.97 1017.31 1018.77 1019.08 1019.81 1020.51 1020.78 1020.44 1020.30 1019.52 1019.22 1019.35 1019.57 1019.15 1018.16 1018.45 1018.94 1018.93 1019.00 1019.10 1019.25 1019.20
1017.62 1017.66 1017.66 1017.64 1017.51 1017.50 1017.37 1017.15 1016.96 1016.98 1016.97 1016.81 1016.77 1016.88 1016.31 1016.35 1016.39 1016.40 1016.25 1016.41 1016.71 1017.06 1017.46 1017.87 1018.72 1019.64 1020.22 1020.53 1020.84 1020.78 1020.84 1020.61 1020.28 1019.80 1019.87 1019.95 1019.34 1018.79 1018.53 1018.89 1018.74 1018.56 1018.42 1018.48 1018.45
1017.33 1017.40 1017.45 1017.46 1017.34 1017.55 1017.32 1017.28 1017.59 1017.60 1017.22 1016.78 1016.58 1016.53 1016.46 1016.53 1016.40 1016.58 1016.60 1016.66 1017.15 1017.89 1018.57 1019.22 1019.73 1019.96 1019.52 1020.13 1020.23 1020.42 1020.63 1020.64 1020.22 1019.94 1020.25 1019.90 1019.26 1018.78 1018.30 1018.42 1017.96 1017.65 1017.48 1017.18 1017.02
1017.48 1017.41 1017.24 1017.50 1017.13 1017.56 1017.93 1017.97 1017.94 1018.03 1017.54 1016.64 1016.82 1016.59 1016.37 1016.28 1016.71 1016.78 1016.57 1017.15 1017.69 1018.76 1019.23 1019.93 1019.94 1019.19 1019.65 1020.22 1020.45 1020.65 1020.88 1020.82 1020.34 1020.23 1020.49 1019.98 1019.21 1018.27 1017.88 1016.85 1016.11 1016.06 1015.95 1015.69 1015.50
1017.56 1017.24 1017.00 1017.06 1017.10 1017.87 1018.30 1017.94 1017.81 1018.00 1017.96 1016.81 1016.62 1016.40 1016.11 1016.29 1016.29 1016.35 1016.85 1017.30 1018.00 1019.19 1019.61 1019.79 1019.38 1019.34 1019.75 1020.31 1020.72 1020.93 1021.06 1020.93 1020.89 1020.68 1020.74 1020.49 1019.39 1017.73 1016.33 1015.75 1015.33 1014.76 1014.25 1014.27 1014.07
1018.06 1017.61 1017.19 1017.26 1018.00 1018.12 1018.09 1017.78 1017.85 1017.95 1018.22 1016.93 1016.59 1015.82 1015.92 1015.89 1016.32 1016.07 1016.02 1016.92 1018.24 1018.54 1019.51 1019.70 1019.05 1019.34 1019.87 1020.12 1020.33 1020.76 1020.35 1020.70 1021.18 1021.66 1021.63 1021.04 1019.65 1017.47 1015.85 1015.01 1014.50 1013.40 1013.18 1012.69 1012.68
1018.19 1018.10 1017.97 1017.63 1017.68 1018.10 1018.00 1017.81 1017.92 1018.15 1018.16 1016.64 1016.21 1015.82 1015.98 1016.33 1016.59 1016.66 1016.56 1016.50 1017.43 1018.38 1019.18 1018.28 1018.62 1019.03 1019.38 1019.26 1019.78 1020.14 1020.35 1021.09 1021.62 1022.12 1022.21 1021.39 1020.75 1016.33 1015.57 1014.53 1013.53 1012.14 1011.77 1011.74 1012.04
1018.78 1018.52 1018.24 1018.02 1017.89 1017.96 1017.93 1017.84 1018.38 1019.04 1017.46 1016.31 1016.00 1016.08 1016.58 1016.53 1016.86 1017.09 1016.86 1016.88 1017.38 1018.11 1018.36 1018.34 1018.25 1018.24 1018.12 1018.80 1019.19 1020.12 1020.77 1021.74 1022.55 1022.92 1022.58 1020.32 1020.08 1014.73 1014.82 1013.01 1012.21 1011.26 1010.89 1011.01 1011.79
1018.69 1018.63 1018.57 1018.31 1018.14 1017.94 1017.93 1018.49 1019.35 1018.33 1017.51 1016.55 1016.37 1016.58 1016.84 1016.94 1017.27 1017.26 1017.41 1017.50 1017.70 1018.34 1018.15 1018.30 1018.00 1017.94 1017.95 1018.82 1019.54 1019.75 1020.73 1022.29 1023.24 1023.49 1021.68 1020.39 1019.72 1013.14 1013.16 1012.17 1011.51 1011.13 1010.24 1010.76 1011.52
1018.59 1018.57 1018.50 1018.25 1017.99 1018.19 1018.40 1019.06 1018.57 1017.33 1017.07 1016.61 1016.65 1017.04 1017.43 1017.40 1017.51 1017.74 1017.79 1017.94 1017.60 1017.78 1018.03 1017.94 1017.76 1017.34 1017.20 1017.15 1018.14 1019.22 1019.36 1020.42 1021.33 1022.54 1021.72 1020.81 1018.20 1013.19 1011.62 1011.19 1011.14 1010.74 1010.48 1010.99 1011.66
1018.57 1018.69 1018.57 1018.06 1018.04 1018.27 1018.52 1018.26 1017.09 1016.62 1016.82 1016.75 1017.18 1017.42 1017.45 1017.37 1017.64 1017.94 1017.82 1017.40 1016.77 1016.86 1017.29 1017.38 1017.05 1016.61 1016.63 1016.64 1016.89 1018.54 1018.78 1018.18 1020.01 1022.06 1021.87 1018.86 1015.59 1012.70 1011.43 1010.89 1010.58 1010.27 1010.62 1011.07 1011.52
1018.87 1018.83 1018.52 1017.62 1017.98 1018.28 1018.14 1017.49 1016.88 1016.18 1016.17 1016.36 1016.40 1016.50 1016.94 1017.30 1017.75 1018.17 1017.61 1016.02 1015.92 1015.31 1015.35 1016.20 1016.83 1016.65 1016.83 1016.82 1016.92 1016.93 1017.39 1018.62 1019.64 1020.99 1020.58 1017.55 1015.77 1012.65 1011.34 1010.48 1009.85 1010.11 1010.30 1010.54 1010.82
1019.27 1019.22 1017.96 1017.74 1017.92 1018.61 1017.61 1017.10 1016.69 1016.24 1016.39 1016.34 1015.86 1016.17 1016.53 1016.84 1017.26 1017.51 1016.53 1015.63 1015.10 1014.94 1015.26 1015.74 1016.55 1017.18 1017.21 1016.77 1016.65 1017.41 1017.27 1017.86 1018.44 1018.94 1018.36 1017.16 1013.31 1010.93 1010.10 1009.79 1009.94 1009.76 1009.80 1010.10 1010.57
1019.29 1019.30 1017.93 1017.68 1018.26 1018.05 1017.47 1016.85 1016.46 1016.38 1016.21 1016.05 1015.86 1015.78 1016.22 1016.45 1016.54 1016.69 1016.11 1015.16 1014.45 1014.73 1015.31 1014.87 1015.83 1016.60 1016.62 1016.33 1016.29 1016.21 1015.94 1016.39 1017.44 1018.15 1017.85 1016.42 1011.34 1009.48 1009.75 1009.52 1009.56 1009.32 1009.73 1010.02 1010.52
1019.35 1019.25 1018.18 1018.04 1017.87 1017.72 1017.28 1016.79 1016.73 1016.45 1016.17 1016.13 1016.07 1015.93 1015.63 1015.98 1016.02 1015.48 1015.34 1014.65 1014.62 1014.36 1014.32 1014.69 1015.40 1016.65 1016.54 1016.83 1016.74 1016.23 1015.95 1016.03 1016.32 1016.58 1015.76 1014.80 1010.68 1009.31 1009.67 1009.39 1009.43 1009.85 1009.81 1010.22 1010.51
1019.09 1019.27 1018.89 1018.37 1017.58 1017.32 1017.53 1017.26 1016.89 1016.28 1016.37 1016.40 1015.92 1015.82 1016.03 1016.00 1015.20 1014.78 1014.97 1014.85 1014.57 1014.04 1013.90 1013.73 1014.41 1014.86 1014.52 1014.13 1014.24 1015.39 1014.88 1014.56 1014.57 1015.00 1012.71 1012.98 1009.46 1009.25 1009.37 1009.42 1009.28 1009.37 1009.60 1009.82 1010.11
1018.23 1018.21 1017.81 1018.26 1017.80 1017.77 1017.73 1017.24 1016.67 1016.75 1016.50 1016.27 1016.06 1016.01 1015.95 1015.71 1015.53 1015.03 1014.91 1015.07 1014.69 1014.72 1014.64 1014.51 1014.29 1014.54 1013.35 1013.74 1013.98 1013.60 1013.42 1013.78 1014.03 1012.69 1012.80 1009.91 1010.25 1005.78 1008.58 1008.73 1008.78 1008.75 1008.88 1008.93 1008.91
1017.17 1017.72 1018.01 1017.96 1017.55 1017.83 1017.99 1016.91 1016.79 1016.71 1016.71 1016.38 1016.43 1016.05 1016.07 1016.05 1015.58 1015.09 1015.24 1015.16 1015.28 1014.82 1014.97 1014.62 1014.03 1013.94 1013.39 1012.97 1013.12 1013.51 1013.22 1012.68 1011.76 1011.21 1011.36 1009.24 1008.59 1005.07 1006.64 1007.39 1008.00 1008.13 1008.24 1008.29 1008.34
1016.98 1017.28 1017.48 1017.47 1017.82 1017.80 1016.92 1016.31 1016.38 1017.41 1016.73 1016.84 1016.92 1016.92 1016.57 1016.15 1016.16 1015.98 1015.96 1015.91 1015.78 1015.72 1015.30 1014.53 1013.92 1013.81 1012.36 1011.72 1012.61 1012.49 1011.30 1010.33 1010.64 1009.64 1008.91 1008.90 1005.60 1005.56 1006.03 1006.48 1007.40 1007.59 1007.70 1007.59 1007.57
Thickness
5637 5642 5646 5651 5655 5658 5661 5666 5669 5674 5678 5686 5690 5695 5701 5702 5710 5714 5710 5713 5717 5721 5725 5728 5726 5725 5723 5714 5712 5709 5686 5677 5689 5684 5704 5699 5703 5702 5704 5699 5699 5700 5700 5701 5699
5627 5634 5640 5644 5647 5651 5657 5659 5666 5670 5675 5683 5687 5696 5698 5704 5710 5708 5712 5712 5717 5718 5721 5719 5717 5716 5705 5708 5704 5698 5682 5690 5698 5697 5706 5702 5707 5701 5701 5698 5699 5700 5699 5696 5695
5618 5624 5630 5636 5640 5646 5651 5656 5661 5665 5671 5677 5686 5694 5698 5704 5702 5700 5706 5710 5714 5716 5716 5719 5716 5711 5700 5704 5700 5692 5689 5698 5704 5705 5708 5705 5705 5702 5699 5695 5705 5706 5705 5696 5694
5610 5615 5622 5628 5633 5637 5643 5649 5655 5662 5668 5677 5685 5692 5694 5702 5679 5699 5703 5704 5711 5713 5713 5709 5708 5696 5690 5693 5698 5695 5696 5700 5706 5707 5704 5702 5701 5701 5698 5711 5712 5710 5708 5698 5695
5606 5609 5615 5621 5626 5633 5638 5645 5651 5657 5665 5673 5680 5687 5693 5687 5685 5696 5702 5702 5707 5709 5704 5702 5698 5692 5686 5690 5693 5692 5693 5699 5703 5704 5704 5702 5704 5701 5700 5708 5708 5706 5702 5702 5699
5599 5604 5610 5615 5621 5627 5633 5638 5645 5651 5659 5665 5672 5680 5682 5673 5687 5691 5695 5701 5700 5701 5698 5697 5693 5695 5685 5686 5686 5689 5690 5693 5697 5700 5700 5700 5701 5701 5709 5705 5705 5702 5703 5701 5700
5594 5599 5602 5608 5613 5618 5624 5631 5637 5643 5650 5657 5663 5670 5670 5673 5682 5685 5692 5693 5693 5695 5689 5692 5695 5693 5687 5681 5684 5682 5682 5685 5691 5694 5697 5698 5695 5695 5707 5702 5703 5701 5700 5698 5699
5588 5592 5598 5603 5607 5613 5619 5625 5631 5638 5644 5650 5655 5661 5661 5672 5677 5680 5684 5685 5686 5688 5688 5687 5692 5682 5680 5675 5670 5669 5665 5667 5683 5685 5690 5692 5682 5702 5700 5699 5703 5701 5698 5696 5700
5582 5588 5591 5597 5602 5606 5612 5618 5624 5630 5636 5643 5648 5653 5653 5665 5665 5671 5676 5674 5676 5679 5677 5681 5679 5665 5668 5657 5651 5647 5653 5654 5667 5675 5679 5678 5681 5696 5693 5691 5697 5698 5698 5697 5698
5576 5580 5586 5590 5596 5600 5606 5610 5616 5620 5626 5633 5638 5639 5649 5649 5655 5660 5666 5667 5666 5667 5665 5663 5653 5648 5644 5647 5638 5644 5646 5649 5655 5670 5667 5668 5673 5685 5689 5689 5695 5697 5698 5698 5699
5570 5574 5578 5583 5590 5593 5599 5602 5603 5607 5614 5625 5631 5635 5638 5644 5650 5650 5654 5656 5656 5649 5641 5641 5639 5639 5653 5646 5651 5646 5649 5652 5655 5662 5660 5660 5669 5680 5687 5686 5690 5698 5700 5703 5705
5560 5567 5572 5574 5582 5583 5585 5589 5591 5596 5598 5615 5617 5624 5631 5637 5636 5639 5648 5642 5640 5629 5631 5628 5626 5648 5646 5639 5644 5642 5643 5643 5648 5652 5650 5655 5667 5684 5684 5700 5707 5709 5711 5710 5713
5550 5557 5564 5569 5574 5573 5574 5580 5584 5587 5586 5604 5610 5615 5622 5626 5629 5632 5634 5632 5627 5615 5617 5618 5636 5636 5638 5630 5631 5631 5631 5634 5641 5644 5640 5641 5650 5674 5693 5696 5701 5707 5715 5715 5718
5538 5546 5553 5559 5561 5564 5566 5572 5576 5579 5565 5592 5600 5610 5617 5620 5621 5629 5631 5626 5617 5617 5608 5615 5629 5630 5628 5630 5629 5622 5629 5631 5632 5630 5622 5636 5622 5667 5690 5698 5702 5712 5712 5719 5722
5525 5530 5535 5545 5552 5553 5559 5562 5565 5568 5550 5583 5594 5606 5606 5609 5613 5615 5620 5623 5610 5611 5610 5625 5618 5620 5622 5629 5623 5625 5621 5618 5619 5613 5613 5619 5614 5659 5679 5691 5703 5719 5722 5720 5717
5503 5512 5521 5530 5537 5541 5545 5550 5551 5542 5552 5574 5584 5589 5590 5598 5597 5599 5607 5611 5609 5603 5608 5613 5616 5620 5627 5624 5623 5612 5609 5600 5587 5593 5594 5622 5625 5673 5669 5695 5708 5717 5720 5718 5712
5489 5496 5504 5513 5523 5526 5531 5531 5525 5534 5557 5571 5572 5575 5578 5580 5584 5587 5587 5591 5589 5584 5592 5601 5606 5613 5618 5609 5607 5612 5603 5584 5577 5566 5602 5602 5611 5688 5686 5689 5701 5712 5721 5712 5706
5475 5482 5490 5497 5504 5508 5511 5510 5514 5541 5547 5559 5562 5561 5563 5567 5573 5572 5571 5574 5585 5586 5579 5586 5591 5600 5612 5617 5606 5594 5602 5583 5572 5566 5595 5583 5603 5658 5684 5692 5688 5694 5695 5694 5694
5465 5469 5475 5482 5488 5492 5494 5496 5518 5540 5538 5544 5545 5546 5549 5559 5561 5562 5559 5566 5580 5582 5578 5567 5578 5597 5601 5608 5612 5589 5588 5614 5589 5499 5551 5600 5630 5663 5672 5682 5685 5687 5684 5678 5675
5451 5456 5463 5468 5472 5476 5484 5495 5510 5526 5531 5534 5538 5543 5540 5541 5547 5541 5545 5577 5581 5587 5588 5579 5569 5582 5586 5593 5594 5595 5596 5576 5558 5558 5540 5598 5608 5649 5673 5679 5682 5677 5679 5680 5676
5437 5438 5455 5456 5458 5454 5471 5488 5501 5511 5515 5518 5529 5532 5534 5534 5538 5531 5556 5573 5575 5576 5575 5571 5563 5564 5567 5572 5577 5575 5577 5578 5573 5562 5565 5561 5621 5649 5665 5668 5667 5671 5670 5672 5671
5424 5422 5444 5445 5443 5450 5465 5479 5498 5501 5505 5509 5514 5524 5524 5524 5523 5523 5542 5564 5568 5565 5558 5565 5553 5553 5556 5565 5564 5571 5581 5581 5560 5555 5532 5550 5628 5661 5655 5658 5655 5660 5662 5660 5655
5408 5411 5427 5431 5431 5443 5452 5466 5471 5481 5489 5495 5496 5506 5518 5517 5518 5527 5534 5553 5547 5555 5553 5555 5536 5506 5540 5545 5542 5548 5558 5566 5550 5529 5547 5563 5623 5643 5635 5642 5645 5643 5643 5634 5639
5397 5396 5402 5414 5432 5438 5438 5443 5451 5467 5468 5476 5489 5495 5499 5496 5517 5522 5521 5531 5533 5546 5550 5549 5531 5537 5559 5563 5557 5539 5546 5561 5566 5549 5588 5559 5623 5637 5632 5629 5634 5631 5628 5626 5623
5386 5393 5401 5393 5413 5422 5428 5440 5445 5446 5455 5462 5465 5474 5486 5491 5496 5503 5508 5515 5518 5521 5528 5528 5521 5530 5555 5553 5549 5550 5551 5549 5547 5570 5552 5599 5585 5648 5625 5625 5625 5626 5622 5623 5627
5375 5383 5383 5389 5404 5401 5399 5428 5431 5442 5441 5446 5449 5467 5462 5461 5483 5496 5498 5500 5499 5505 5510 5514 5509 5519 5529 5541 5542 5534 5533 5539 5556 5566 5559 5587 5586 5650 5634 5614 5609 5613 5617 5618 5617
5358 5365 5371 5382 5377 5381 5402 5418 5422 5411 5427 5431 5431 5424 5433 5452 5447 5453 5458 5465 5471 5479 5487 5500 5500 5504 5528 5548 5522 5508 5540 5561 5558 5564 5573 5560 5612 5624 5615 5615 5602 5601 5601 5608 5610